Regional Weather Roundup
Issued by NWS

Home | Current Version | Previous Version | Text Only | Print | Product List | Glossary On
Versions: 1 2 3 4 5 6 7 8 9 10 11 12 13 14 15 16 17 18 19 20 21 22 23 24 25 26 27 28 29 30 31 32 33 34 35 36 37 38 39 40 41 42 43 44 45 46 47 48 49 50
000
ASUS43 KTOP 251508
RWRKS

WEATHER ROUNDUP FOR KANSAS
NATIONAL WEATHER SERVICE GOODLAND KS
900 AM CST SUN JAN 25 2015

NOTE:  "FAIR" INDICATES FEW OR NO CLOUDS BELOW 12,000 FEET WITH NO
SIGNIFICANT WEATHER AND/OR OBSTRUCTIONS TO VISIBILITY.

KSZ001>006-013>018-027>032-041>047-251600-
NORTHWEST KANSAS

CITY           SKY/WX    TMP DP  RH WIND       PRES   REMARKS
GOODLAND       CLEAR     37  27  67 NW16      30.10R WCI  28
HAYS           SUNNY     41  23  48 NW20G31   30.02R
HILL CITY      SUNNY     40  26  57 NW20G26   30.04R WCI  30
RUSSELL        SUNNY     40  29  64 NW22G32   29.99R WCI  30
$$

KSZ061>065-074>080-084>089-251600-
SOUTHWEST KANSAS

CITY           SKY/WX    TMP DP  RH WIND       PRES   REMARKS
DODGE CITY     SUNNY     42  23  46 N20G29    30.06S
ELKHART          N/A     40  23  50 W12         N/A  WCI  33
GARDEN CITY    SUNNY     37  24  59 N16       30.08R WCI  28
GREAT BEND     SUNNY     41  27  56 NW26G33   30.01R
LIBERAL        SUNNY     41  23  48 NW16      30.13R
PRATT          SUNNY     41  28  60 NW24G33   30.01S
$$

KSZ066>073-081>083-090>101-251600-
SOUTHEAST KANSAS

CITY           SKY/WX    TMP DP  RH WIND       PRES   REMARKS
CHANUTE        CLOUDY    44  34  67 NW25G39   29.80R
COFFEYVILLE    CLOUDY    48  34  58 NW23G36   29.81R
HUTCHINSON     CLOUDY    45  29  53 NW22G35   29.93R
MEDICINE LODGE   N/A     45  28  51 N29G38    29.98R
NEWTON         CLOUDY    45  28  53 N28G41    29.91R
PARSONS        CLOUDY    47  36  65 NW26G37   29.81R
WICHITA INTL   PTSUNNY   47  29  49 NW25G36   29.91R
WICHITA JABRA  CLOUDY    45  31  58 NW21G29   29.90R
WICHITA MCCONL CLOUDY    45  31  56 N21G35    29.90R
WINFIELD       CLOUDY    47  31  53 NW24G36   29.91R
$$

KSZ007>012-019>026-033>040-048>060-102>105-251600-
NORTHEAST KANSAS

CITY           SKY/WX    TMP DP  RH WIND       PRES   REMARKS
CONCORDIA      CLOUDY    42  34  73 N15G24    29.92R
EMPORIA        CLOUDY    42  32  67 NW30G41   29.83R
LAWRENCE       CLOUDY    38  31  76 NW26G33   29.78R WCI  26
MANHATTAN      CLOUDY    41  32  70 N10G28    29.88R
MARYSVILLE     CLOUDY    36  32  87 N24G32    29.86R WCI  24
OLATHE IND     CLOUDY    37  33  85 NW17G31   29.76R WCI  27
OLATHE EXE     LGT RAIN  37  33  85 NW18G31   29.73R WCI  27
SALINA         CLOUDY    46  31  55 NW28G35   29.92R
TOPEKA BILLARD CLOUDY    39  31  72 NW18G32   29.81R WCI  30
TOPEKA FORBES  CLOUDY    40  31  70 NW31G41   29.80R WCI  28
$$


USA.gov is the U.S. government's official web portal to all federal, state and local government web resources and services.